SCP
-0 0 0 0 0 0 0 0 0 0 0 0 0 0 0 0 0 0 0 0 0 0 0 0 0 0 -0 -0 -0 -0 0 -0 -0 0 0 0 0 0 0 0 0 0 0 0
-0 0 0 0 0 0 0 0 0 0 0 0 0 0 0 0 0 0 -0 0 0 0 0 0 0 0 0 -0 -0 -0 -0 0 0 0 0 -0 0 0 0 0 0 0 0 0
-0 0 -0 0 0 0 0 0 0 0 0 0 0 0 0 0 0 0 -0 -0 0 0 0 0 0 0 0 -0 -0 -0 -0 0 0 0 0 0 0 0 -0 -0 0 0 0 0
-0 -0 0 0 0 0 0 0 -0 0 0 0 0 0 0 0 0 0 0 -0 0 0 0 0 0 0 0 0 -0 -0 -0 -0 -0 -0 -0 0 0 -0 -0 -0 -0 -0 0 0
0 0 -0 0 0 0 0 0 -0 -0 0 0 0 0 -0 0 0 0 0 0 0 0 0 0 0 0 0 0 0 -0 -0 -0 -0 -0 -0 0 0 0 0 -0 -0 -0 0 -0
0 0 0 0 0 0 0 0 0 0 0 0 0 0 0 0 0 0 0 0 0 0 0 0 0 0 0 0 0 0 0 0 0 0 -0 -0 0 0 -0 0 0 -0 -0 -0
0 0 0 0 0 0 0 0 0 0 0 0 0 0 0 0 0 0 0 0 0 0 0 0 0 0 0 0 0 0 0 0 0 -0 -0 -0 -0 -0 -0 -0 -0 -0 -0 0
0 0 0 0 0 0 0 0 0 0 0 0 0 0 0 0 0 0 0 0 0 0 0 0 0 0 0 0 0 0 0 0 0 0 0 0 0 0 0 0 0 0 0 0
0 0 0 0 0 0 0 0 0 0 0 0 0 0 0 0 0 0 0 0 0 0 0 0 0 0 0 0 0 0 0 0 0 0 0 0 0 0 0 0 0 0 0 0
0 0 0 0 -0 0 0 0 0 0 0 0 0 0 0 0 0 0 0 0 0 0 -0 -0 -0 -0 -0 -0 -0 -0 0 0 0 0 0 0 0 0 0 0 0 0 0 0
0 0 0 0 0 0 0 0 0 0 0 0 0 0 0 0 0 0 0 0 0 0 0 -0 0 -0 -0 -0 -0 0 0 0 0 0 0 0 0 0 0 -0 0 0 -0 -0
0 0 0 0 0 0 0 0 0 0 0 0 0 0 0 0 0 0 0 0 0 0 0 0 0 0 0 0 0 0 0 0 0 0 -0 -0 0 -0 0 0 0 0 0 0
0 0 0 0 0 0 0 0 0 0 0 0 0 0 0 0 0 0 0 0 0 0 0 0 0 0 0 0 0 0 0 0 0 0 0 0 0 0 0 0 0 0 -0 -0
0 0 0 0 0 0 0 0 0 0 0 0 0 0 0 0 0 0 0 0 0 0 0 0 0 0 0 0 0 0 0 0 0 0 0 0 0 0 0 0 0 0 0 0
-0 0 0 0 0 0 0 0 0 0 0 0 0 0 0 0 0 0 0 0 0 0 0 0 0 0 0 0 0 0 0 0 0 0 0 0 0 0 0 0 0 0 0 0
0 0 0 0 0 0 0 0 0 0 0 0 0 0 0 0 0 0 0 0 0 0 0 0 0 0 0 0 0 0 0 0 0 0 0 0 0 0 0 0 0 0 0 0
0 0 0 0 0 0 0 0 0 0 0 0 0 0 0 0 0 0 0 0 0 0 0 0 0 0 0 0 0 0 0 0 0 0 0 0 0 0 0 0 0 0 0 0
0 0 0 0 0 0 0 0 0 0 0 0 0 0 0 0 0 0 0 0 0 0 0 0 0 0 0 0 0 0 0 0 0 0 0 0 0 0 0 0 0 0 0 0
0 0 0 0 0 0 0 0 0 0 0 0 0 0 0 0 0 0 0 0 0 0 0 0 0 0 0 0 0 0 0 0 0 0 0 0 0 0 0 0 0 0 0 0
0 0 0 0 0 0 0 0 0 0 0 0 0 0 0 0 0 0 0 0 0 0 0 0 0 0 0 0 0 0 0 0 0 0 0 0 0 0 0 0 0 0 0 0
0 0 0 0 0 0 0 0 0 0 0 0 0 0 0 0 0 0 0 0 0 0 0 0 0 0 0 0 0 0 0 0 0 0 0 0 0 0 0 0 0 0 0 0
0 0 0 0 0 0 0 0 0 0 0 0 0 0 0 0 0 0 0 0 0 0 0 0 0 0 0 0 0 0 0 0 0 0 0 0 0 0 0 0 0 0 0 0
0 0 0 0 0 0 0 0 0 0 0 0 0 0 0 0 0 0 0 0 0 0 0 0 0 0 0 0 0 0 0 0 0 0 0 0 0 0 0 0 0 0 0 0
0 0 0 0 0 0 0 0 0 0 0 0 0 0 0 0 0 0 0 0 0 0 0 0 0 0 0 0 0 0 0 0 0 0 0 0 0 0 0 0 0 0 0 0
0 0 0 0 0 0 0 0 0 0 0 0 0 0 0 0 0 0 0 0 0 0 0 0 0 0 0 0 0 0 0 0 0 0 0 0 0 0 0 0 0 0 0 0
0 0 0 0 0 0 0 0 0 0 0 0 0 0 0 0 0 0 0 0 0 0 0 0 0 0 0 0 0 0 0 0 0 0 0 0 0 0 0 0 0 0 0 0
0 0 0 0 0 0 0 0 0 0 0 0 0 0 0 0 0 0 0 0 0 0 0 0 0 0 0 0 0 0 0 0 0 0 0 0 0 0 0 0 0 0 0 0
Wind_Speed_500mb
11 12 6 9 10 10 16 11 11 8 13 28 18 17 42 23 14 11 13 16 13 9 9 10 12 12 12 16 18 20 17 14 11 13 13 14 14 16 20 22 21 21 22 20
10 7 3 10 16 17 5 8 20 23 36 28 36 25 28 20 14 13 10 13 12 9 6 5 7 10 11 13 13 13 13 7 9 11 15 14 17 15 17 19 19 18 17 19
9 10 13 16 17 26 11 11 21 12 21 7 7 22 27 18 16 16 15 13 11 9 5 3 7 9 10 10 11 10 7 5 8 14 17 17 14 16 15 18 24 22 17 15
6 9 6 11 9 15 14 12 34 17 13 19 19 25 35 38 36 23 18 15 11 9 6 4 8 9 8 9 9 7 8 10 13 16 14 14 12 14 14 15 14 15 15 14
6 5 17 4 11 16 17 13 32 35 35 32 29 25 51 32 33 25 19 15 11 11 8 4 6 8 7 8 7 7 8 13 14 12 12 13 15 15 13 14 15 16 12 15
6 8 12 9 6 17 8 10 21 45 31 21 16 2 9 7 5 11 17 17 14 12 12 8 5 6 6 5 5 4 5 5 7 8 11 16 15 17 17 19 17 14 19 20
5 5 19 12 15 22 11 11 21 33 25 27 14 24 4 6 7 6 11 14 17 16 12 12 10 8 5 4 2 2 1 1 2 4 9 12 11 11 12 15 13 15 16 18
6 4 18 29 15 14 7 10 15 16 20 28 28 20 17 19 15 14 12 18 19 19 18 17 16 14 11 7 5 5 6 4 4 1 3 5 8 9 12 15 16 16 18 19
21 15 7 63 19 39 11 11 14 14 13 15 21 23 22 27 25 21 23 21 24 25 23 25 24 21 19 14 13 11 11 11 9 8 7 7 6 5 5 7 12 14 17 17
5 9 40 42 62 40 27 40 26 22 19 23 27 24 23 24 28 32 29 34 30 32 36 33 30 30 23 25 22 21 18 16 17 14 14 14 12 10 12 14 14 13 12 13
12 23 32 40 51 65 63 61 52 44 43 41 43 47 43 37 37 36 34 33 37 42 42 39 37 34 34 34 32 28 27 26 23 21 20 20 20 21 21 21 19 18 19 19
14 27 19 12 2 19 35 46 31 30 37 36 39 35 33 41 40 44 51 47 45 44 46 47 46 45 43 43 41 39 37 35 32 29 27 26 26 26 27 27 26 26 25 22
29 38 29 33 22 31 42 40 39 40 39 37 37 40 38 43 44 46 49 53 60 57 53 50 54 56 51 52 50 49 48 42 40 40 38 35 32 31 30 31 32 31 29 27
76 64 47 67 47 44 47 39 39 46 43 38 35 38 42 48 50 51 53 52 53 59 65 64 65 65 61 58 58 56 55 52 52 49 47 45 42 38 36 38 36 35 35 35
61 71 75 72 63 63 78 63 65 61 58 57 52 52 52 54 58 58 58 58 55 58 64 70 72 73 67 68 68 64 63 62 59 58 56 52 50 49 47 46 45 44 45 47
61 74 70 77 78 72 79 79 73 64 58 60 58 61 58 62 67 67 61 61 64 69 58 62 64 60 71 69 75 76 73 70 68 66 64 64 63 61 60 58 57 56 56 53
82 84 89 99 89 76 79 76 75 69 69 69 66 60 61 61 67 71 67 61 64 68 66 64 61 53 62 71 79 79 81 80 78 77 77 76 72 72 69 66 66 65 62 58
76 84 87 89 83 84 82 80 74 70 74 69 61 61 62 59 62 61 55 48 56 63 61 62 64 69 66 63 66 76 81 83 87 88 84 83 81 79 78 77 76 74 70 66
94 103 104 101 98 96 93 87 79 75 68 63 62 60 56 54 51 51 52 55 61 69 68 62 59 61 65 75 74 68 73 77 85 89 89 88 89 88 87 85 83 81 77 75
89 89 81 82 81 76 68 62 59 59 53 52 51 52 49 42 40 43 48 52 50 52 51 52 58 66 62 61 63 70 76 79 76 76 83 89 93 94 93 91 88 87 84 82
58 61 63 66 61 51 45 45 49 45 38 36 39 40 38 40 39 41 46 48 34 38 41 43 47 54 62 66 58 54 56 65 73 79 83 86 88 91 93 94 93 92 89 85
56 59 51 43 40 39 41 42 40 41 42 42 45 44 37 32 35 35 36 37 34 35 35 36 36 40 48 55 60 62 63 63 64 68 76 76 78 80 81 84 88 89 86 84
45 42 36 35 38 38 40 42 43 43 39 39 38 36 33 30 30 27 29 28 27 26 29 31 31 34 40 45 48 51 56 61 64 67 69 70 71 71 72 75 76 78 79 79
33 36 35 39 40 40 40 40 40 36 35 32 29 26 24 23 22 25 21 25 28 29 30 30 31 32 34 35 37 40 45 48 49 51 53 57 60 63 64 64 66 66 65 69
22 25 29 35 37 35 33 32 34 30 27 25 24 24 23 25 23 23 23 22 21 21 21 22 20 21 25 28 31 33 35 39 44 48 49 50 52 53 54 54 56 55 53 54
15 17 20 24 27 29 26 26 26 26 25 23 23 23 20 22 18 14 13 14 15 17 17 17 17 19 19 20 22 26 29 33 37 40 42 43 44 45 45 44 41 37 38 40
12 15 19 22 24 23 20 20 21 23 23 24 22 18 19 15 9 8 10 12 14 15 15 16 16 17 17 17 18 20 22 25 29 32 35 36 36 36 33 32 31 33 36 39
Wind_Direction_500mb
260 258 263 226 187 193 186 195 178 250 227 273 268 259 298 300 300 270 245 241 243 251 294 322 341 351 11 16 13 17 13 354 39 60 66 81 94 121 134 148 157 168 172 163
295 313 322 256 226 208 203 242 271 268 285 270 285 265 259 275 287 270 244 244 252 243 249 291 340 353 7 17 21 33 40 14 51 76 82 87 97 130 131 132 139 153 167 173
262 324 327 301 216 182 192 211 193 189 227 256 280 265 272 271 265 272 264 258 262 259 256 321 359 6 14 12 14 14 35 110 104 105 94 80 89 103 113 140 144 150 176 169
242 13 320 245 149 178 199 213 213 260 238 219 245 271 280 278 273 265 265 261 272 266 268 323 355 6 22 31 24 19 45 111 121 107 118 115 107 106 111 134 145 151 158 159
123 182 292 238 191 166 182 274 204 220 247 243 264 289 290 272 254 254 256 252 255 262 255 286 338 346 18 49 33 23 55 115 112 118 122 123 141 157 147 142 154 153 147 122
99 145 231 252 203 165 165 295 191 199 231 222 176 128 260 289 274 236 224 237 238 251 255 254 287 316 346 23 43 47 77 119 127 111 104 96 101 106 119 126 130 140 159 155
162 216 282 244 157 142 90 231 170 197 212 181 189 215 239 259 279 254 243 236 238 244 242 244 250 271 276 305 8 7 26 104 111 117 99 100 100 106 123 132 146 138 140 147
92 116 268 161 127 177 219 144 160 182 207 214 236 241 253 253 257 262 253 255 248 248 248 246 243 252 252 251 268 289 288 261 252 239 122 120 130 141 138 137 146 146 143 154
192 210 228 183 203 211 170 193 187 197 214 232 246 254 255 256 259 262 263 258 257 255 250 248 248 243 247 246 249 260 277 277 254 236 230 226 193 167 164 160 158 158 158 161
91 237 231 231 228 234 240 240 250 253 253 255 260 261 256 259 260 258 258 258 257 254 250 248 250 250 242 243 245 247 245 257 260 247 234 231 226 218 210 205 200 183 180 179
268 274 267 262 242 244 247 252 259 265 269 269 265 259 258 260 261 261 259 253 250 253 256 255 247 247 244 245 245 245 247 246 247 250 245 235 228 225 222 217 209 201 203 202
217 211 195 207 215 235 244 243 243 267 263 266 263 264 264 264 267 266 258 256 253 254 253 252 247 246 241 244 244 244 244 244 247 248 247 245 240 235 231 227 224 221 219 218
232 242 230 262 253 270 265 256 278 277 271 265 260 267 266 272 272 268 265 258 252 253 258 254 248 247 243 243 244 243 244 243 243 244 244 246 246 245 244 242 238 237 237 234
237 244 254 258 259 268 275 271 278 276 268 268 275 273 272 272 277 272 264 264 263 260 262 259 253 246 244 244 245 247 247 245 243 243 243 243 243 244 242 244 245 244 244 243
245 249 251 256 258 259 269 274 279 274 275 276 281 283 280 278 275 271 271 270 270 265 262 257 255 248 244 243 246 247 247 247 247 248 248 248 246 244 243 243 243 242 242 243
233 249 260 264 268 268 269 272 273 276 280 280 283 281 279 280 277 273 266 262 261 258 263 259 254 253 246 246 247 247 247 248 247 247 248 247 246 246 245 245 247 246 247 247
231 242 248 254 257 259 261 270 275 281 287 286 284 283 279 274 270 269 271 264 261 262 257 253 257 255 252 249 250 250 251 251 250 249 246 246 247 248 250 250 251 251 252 251
243 255 259 261 266 267 269 275 280 281 286 288 282 276 273 271 273 275 275 270 260 258 256 255 254 254 254 253 249 250 251 251 250 250 251 250 251 252 252 252 253 253 253 252
246 250 253 257 262 266 273 278 280 282 277 272 271 270 273 270 271 273 272 266 260 257 255 263 263 260 254 252 253 251 252 254 251 249 250 251 252 252 252 253 255 256 256 255
241 247 257 260 263 266 272 274 272 272 274 274 271 271 274 274 275 277 274 271 272 273 272 266 261 257 254 253 253 249 247 249 253 254 251 250 251 253 253 254 255 255 256 256
248 254 255 255 261 265 267 262 267 275 271 269 272 274 277 279 278 275 278 283 286 270 269 265 261 257 251 247 248 250 250 247 248 252 252 252 252 253 255 256 256 256 257 258
246 253 252 252 259 259 256 257 256 259 260 254 252 254 260 266 270 275 275 273 273 275 276 272 267 262 256 250 248 248 249 251 252 252 254 256 258 258 259 260 261 261 259 259
243 245 247 250 251 249 250 252 257 266 267 267 266 266 264 259 256 253 257 262 265 266 266 266 264 260 258 257 255 253 252 253 253 255 257 258 260 262 262 262 262 261 259 258
247 248 252 250 243 242 246 253 257 255 255 254 249 245 246 252 258 269 271 269 269 270 269 265 262 262 261 261 260 258 256 256 257 258 259 260 261 262 263 264 265 266 263 259
259 253 252 253 253 250 245 245 246 242 236 238 244 246 249 257 257 260 259 258 261 263 266 269 268 268 267 267 264 261 259 256 255 254 255 257 259 261 262 263 263 264 264 262
272 264 260 257 254 249 243 237 235 234 232 233 237 242 244 241 238 245 255 265 270 274 275 275 275 275 271 267 267 266 266 264 262 260 259 258 257 258 260 262 263 262 260 259
287 266 252 250 251 249 243 236 232 233 229 226 229 227 227 228 234 255 270 280 283 284 283 281 281 278 276 274 269 264 263 263 263 262 261 259 254 248 246 251 256 256 254 252
Wind_Speed_850mb
11 12 6 9 10 10 16 11 11 8 13 28 18 17 42 23 14 11 13 16 13 9 9 10 12 12 12 16 18 20 17 14 11 13 13 14 14 16 20 22 21 21 22 20
10 7 3 10 16 17 5 8 20 23 36 28 36 25 28 20 14 13 10 13 12 9 6 5 7 10 11 13 13 13 13 7 9 11 15 14 17 15 17 19 19 18 17 19
9 10 13 16 17 26 11 11 21 12 21 7 7 22 27 18 16 16 15 13 11 9 5 3 7 9 10 10 11 10 7 5 8 14 17 17 14 16 15 18 24 22 17 15
6 9 6 11 9 15 14 12 34 17 13 19 19 25 35 38 36 23 18 15 11 9 6 4 8 9 8 9 9 7 8 10 13 16 14 14 12 14 14 15 14 15 15 14
6 5 17 4 11 16 17 13 32 35 35 32 29 25 51 32 33 25 19 15 11 11 8 4 6 8 7 8 7 7 8 13 14 12 12 13 15 15 13 14 15 16 12 15
6 8 12 9 6 17 8 10 21 45 31 21 16 2 9 7 5 11 17 17 14 12 12 8 5 6 6 5 5 4 5 5 7 8 11 16 15 17 17 19 17 14 19 20
5 5 19 12 15 22 11 11 21 33 25 27 14 24 4 6 7 6 11 14 17 16 12 12 10 8 5 4 2 2 1 1 2 4 9 12 11 11 12 15 13 15 16 18
6 4 18 29 15 14 7 10 15 16 20 28 28 20 17 19 15 14 12 18 19 19 18 17 16 14 11 7 5 5 6 4 4 1 3 5 8 9 12 15 16 16 18 19
21 15 7 63 19 39 11 11 14 14 13 15 21 23 22 27 25 21 23 21 24 25 23 25 24 21 19 14 13 11 11 11 9 8 7 7 6 5 5 7 12 14 17 17
5 9 40 42 62 40 27 40 26 22 19 23 27 24 23 24 28 32 29 34 30 32 36 33 30 30 23 25 22 21 18 16 17 14 14 14 12 10 12 14 14 13 12 13
12 23 32 40 51 65 63 61 52 44 43 41 43 47 43 37 37 36 34 33 37 42 42 39 37 34 34 34 32 28 27 26 23 21 20 20 20 21 21 21 19 18 19 19
14 27 19 12 2 19 35 46 31 30 37 36 39 35 33 41 40 44 51 47 45 44 46 47 46 45 43 43 41 39 37 35 32 29 27 26 26 26 27 27 26 26 25 22
29 38 29 33 22 31 42 40 39 40 39 37 37 40 38 43 44 46 49 53 60 57 53 50 54 56 51 52 50 49 48 42 40 40 38 35 32 31 30 31 32 31 29 27
76 64 47 67 47 44 47 39 39 46 43 38 35 38 42 48 50 51 53 52 53 59 65 64 65 65 61 58 58 56 55 52 52 49 47 45 42 38 36 38 36 35 35 35
61 71 75 72 63 63 78 63 65 61 58 57 52 52 52 54 58 58 58 58 55 58 64 70 72 73 67 68 68 64 63 62 59 58 56 52 50 49 47 46 45 44 45 47
61 74 70 77 78 72 79 79 73 64 58 60 58 61 58 62 67 67 61 61 64 69 58 62 64 60 71 69 75 76 73 70 68 66 64 64 63 61 60 58 57 56 56 53
82 84 89 99 89 76 79 76 75 69 69 69 66 60 61 61 67 71 67 61 64 68 66 64 61 53 62 71 79 79 81 80 78 77 77 76 72 72 69 66 66 65 62 58
76 84 87 89 83 84 82 80 74 70 74 69 61 61 62 59 62 61 55 48 56 63 61 62 64 69 66 63 66 76 81 83 87 88 84 83 81 79 78 77 76 74 70 66
94 103 104 101 98 96 93 87 79 75 68 63 62 60 56 54 51 51 52 55 61 69 68 62 59 61 65 75 74 68 73 77 85 89 89 88 89 88 87 85 83 81 77 75
89 89 81 82 81 76 68 62 59 59 53 52 51 52 49 42 40 43 48 52 50 52 51 52 58 66 62 61 63 70 76 79 76 76 83 89 93 94 93 91 88 87 84 82
58 61 63 66 61 51 45 45 49 45 38 36 39 40 38 40 39 41 46 48 34 38 41 43 47 54 62 66 58 54 56 65 73 79 83 86 88 91 93 94 93 92 89 85
56 59 51 43 40 39 41 42 40 41 42 42 45 44 37 32 35 35 36 37 34 35 35 36 36 40 48 55 60 62 63 63 64 68 76 76 78 80 81 84 88 89 86 84
45 42 36 35 38 38 40 42 43 43 39 39 38 36 33 30 30 27 29 28 27 26 29 31 31 34 40 45 48 51 56 61 64 67 69 70 71 71 72 75 76 78 79 79
33 36 35 39 40 40 40 40 40 36 35 32 29 26 24 23 22 25 21 25 28 29 30 30 31 32 34 35 37 40 45 48 49 51 53 57 60 63 64 64 66 66 65 69
22 25 29 35 37 35 33 32 34 30 27 25 24 24 23 25 23 23 23 22 21 21 21 22 20 21 25 28 31 33 35 39 44 48 49 50 52 53 54 54 56 55 53 54
15 17 20 24 27 29 26 26 26 26 25 23 23 23 20 22 18 14 13 14 15 17 17 17 17 19 19 20 22 26 29 33 37 40 42 43 44 45 45 44 41 37 38 40
12 15 19 22 24 23 20 20 21 23 23 24 22 18 19 15 9 8 10 12 14 15 15 16 16 17 17 17 18 20 22 25 29 32 35 36 36 36 33 32 31 33 36 39
Wind_Direction_850mb
260 258 263 226 187 193 186 195 178 250 227 273 268 259 298 300 300 270 245 241 243 251 294 322 341 351 11 16 13 17 13 354 39 60 66 81 94 121 134 148 157 168 172 163
295 313 322 256 226 208 203 242 271 268 285 270 285 265 259 275 287 270 244 244 252 243 249 291 340 353 7 17 21 33 40 14 51 76 82 87 97 130 131 132 139 153 167 173
262 324 327 301 216 182 192 211 193 189 227 256 280 265 272 271 265 272 264 258 262 259 256 321 359 6 14 12 14 14 35 110 104 105 94 80 89 103 113 140 144 150 176 169
242 13 320 245 149 178 199 213 213 260 238 219 245 271 280 278 273 265 265 261 272 266 268 323 355 6 22 31 24 19 45 111 121 107 118 115 107 106 111 134 145 151 158 159
123 182 292 238 191 166 182 274 204 220 247 243 264 289 290 272 254 254 256 252 255 262 255 286 338 346 18 49 33 23 55 115 112 118 122 123 141 157 147 142 154 153 147 122
99 145 231 252 203 165 165 295 191 199 231 222 176 128 260 289 274 236 224 237 238 251 255 254 287 316 346 23 43 47 77 119 127 111 104 96 101 106 119 126 130 140 159 155
162 216 282 244 157 142 90 231 170 197 212 181 189 215 239 259 279 254 243 236 238 244 242 244 250 271 276 305 8 7 26 104 111 117 99 100 100 106 123 132 146 138 140 147
92 116 268 161 127 177 219 144 160 182 207 214 236 241 253 253 257 262 253 255 248 248 248 246 243 252 252 251 268 289 288 261 252 239 122 120 130 141 138 137 146 146 143 154
192 210 228 183 203 211 170 193 187 197 214 232 246 254 255 256 259 262 263 258 257 255 250 248 248 243 247 246 249 260 277 277 254 236 230 226 193 167 164 160 158 158 158 161
91 237 231 231 228 234 240 240 250 253 253 255 260 261 256 259 260 258 258 258 257 254 250 248 250 250 242 243 245 247 245 257 260 247 234 231 226 218 210 205 200 183 180 179
268 274 267 262 242 244 247 252 259 265 269 269 265 259 258 260 261 261 259 253 250 253 256 255 247 247 244 245 245 245 247 246 247 250 245 235 228 225 222 217 209 201 203 202
217 211 195 207 215 235 244 243 243 267 263 266 263 264 264 264 267 266 258 256 253 254 253 252 247 246 241 244 244 244 244 244 247 248 247 245 240 235 231 227 224 221 219 218
232 242 230 262 253 270 265 256 278 277 271 265 260 267 266 272 272 268 265 258 252 253 258 254 248 247 243 243 244 243 244 243 243 244 244 246 246 245 244 242 238 237 237 234
237 244 254 258 259 268 275 271 278 276 268 268 275 273 272 272 277 272 264 264 263 260 262 259 253 246 244 244 245 247 247 245 243 243 243 243 243 244 242 244 245 244 244 243
245 249 251 256 258 259 269 274 279 274 275 276 281 283 280 278 275 271 271 270 270 265 262 257 255 248 244 243 246 247 247 247 247 248 248 248 246 244 243 243 243 242 242 243
233 249 260 264 268 268 269 272 273 276 280 280 283 281 279 280 277 273 266 262 261 258 263 259 254 253 246 246 247 247 247 248 247 247 248 247 246 246 245 245 247 246 247 247
231 242 248 254 257 259 261 270 275 281 287 286 284 283 279 274 270 269 271 264 261 262 257 253 257 255 252 249 250 250 251 251 250 249 246 246 247 248 250 250 251 251 252 251
243 255 259 261 266 267 269 275 280 281 286 288 282 276 273 271 273 275 275 270 260 258 256 255 254 254 254 253 249 250 251 251 250 250 251 250 251 252 252 252 253 253 253 252
246 250 253 257 262 266 273 278 280 282 277 272 271 270 273 270 271 273 272 266 260 257 255 263 263 260 254 252 253 251 252 254 251 249 250 251 252 252 252 253 255 256 256 255
241 247 257 260 263 266 272 274 272 272 274 274 271 271 274 274 275 277 274 271 272 273 272 266 261 257 254 253 253 249 247 249 253 254 251 250 251 253 253 254 255 255 256 256
248 254 255 255 261 265 267 262 267 275 271 269 272 274 277 279 278 275 278 283 286 270 269 265 261 257 251 247 248 250 250 247 248 252 252 252 252 253 255 256 256 256 257 258
246 253 252 252 259 259 256 257 256 259 260 254 252 254 260 266 270 275 275 273 273 275 276 272 267 262 256 250 248 248 249 251 252 252 254 256 258 258 259 260 261 261 259 259
243 245 247 250 251 249 250 252 257 266 267 267 266 266 264 259 256 253 257 262 265 266 266 266 264 260 258 257 255 253 252 253 253 255 257 258 260 262 262 262 262 261 259 258
247 248 252 250 243 242 246 253 257 255 255 254 249 245 246 252 258 269 271 269 269 270 269 265 262 262 261 261 260 258 256 256 257 258 259 260 261 262 263 264 265 266 263 259
259 253 252 253 253 250 245 245 246 242 236 238 244 246 249 257 257 260 259 258 261 263 266 269 268 268 267 267 264 261 259 256 255 254 255 257 259 261 262 263 263 264 264 262
272 264 260 257 254 249 243 237 235 234 232 233 237 242 244 241 238 245 255 265 270 274 275 275 275 275 271 267 267 266 266 264 262 260 259 258 257 258 260 262 263 262 260 259
287 266 252 250 251 249 243 236 232 233 229 226 229 227 227 228 234 255 270 280 283 284 283 281 281 278 276 274 269 264 263 263 263 262 261 259 254 248 246 251 256 256 254 252